Temp
18 18 18 18 18 19 19 19 19 19 19 19 19 19 19 19 19 19 19 19 20 20 20 20 20 20 20 19 19 19 20 19 18 18 18 17 17 17 17 17 17 17 17
20 19 18 18 18 18 19 19 19 19 19 19 19 19 19 19 19 19 19 19 20 20 20 20 20 19 19 19 19 19 19 18 18 18 17 17 17 17 17 17 16 16 17
20 19 18 18 18 18 18 18 19 19 19 19 19 19 19 19 19 19 19 20 20 20 19 19 19 19 18 18 19 19 19 18 18 17 17 17 17 17 17 17 17 17 17
21 19 18 19 19 19 18 18 18 18 18 18 18 18 19 19 19 19 19 20 20 19 19 19 19 19 18 18 18 18 18 18 17 17 17 17 17 17 17 17 17 17 17
20 20 19 18 19 19 19 19 18 18 18 18 18 18 18 19 19 19 19 20 19 19 19 19 18 18 18 17 17 18 17 17 17 16 16 16 17 19 19 18 17 17 17
20 19 19 18 19 19 19 19 19 18 18 18 18 18 18 19 19 19 19 19 19 19 19 18 18 18 18 17 17 17 17 16 16 17 17 16 16 18 18 19 18 17 17
20 20 19 19 19 19 19 19 19 19 19 18 18 18 19 19 19 19 19 19 19 18 18 18 18 18 18 17 17 17 17 16 16 17 16 16 16 16 18 19 18 17 16
20 20 20 19 19 19 19 19 19 18 18 18 18 18 19 19 19 19 19 18 18 18 18 18 18 17 17 17 17 17 16 16 16 16 16 15 15 16 17 18 17 18 16
19 19 19 19 19 19 18 19 19 18 18 18 18 18 19 19 18 18 18 18 18 18 18 18 18 18 17 17 17 17 16 16 16 16 16 16 15 15 16 17 17 18 17
19 19 19 19 19 19 18 19 19 18 18 18 18 18 18 18 18 18 18 18 18 18 17 18 18 18 18 17 16 16 17 16 17 16 16 15 15 15 15 16 16 16 17
18 18 19 19 19 18 17 19 18 18 18 17 16 16 17 17 17 17 17 17 18 17 17 18 18 18 18 17 16 16 16 16 16 16 16 15 15 15 15 16 16 16 17
18 18 18 18 19 18 17 18 18 18 18 17 17 16 17 17 17 17 17 17 17 17 17 17 17 18 17 17 17 17 16 16 16 16 16 16 16 15 15 15 16 16 16
19 18 18 18 18 19 18 18 18 18 17 17 16 16 16 16 16 17 17 17 17 17 17 17 17 18 17 17 17 17 17 16 16 17 16 16 16 15 16 16 16 16 16
19 19 18 18 18 18 18 18 18 18 17 17 17 16 16 16 16 16 16 16 17 17 17 18 18 17 17 17 18 18 18 17 17 17 17 16 16 16 17 16 16 16 17
19 19 19 18 18 19 19 18 18 18 17 17 16 16 16 16 16 16 17 16 17 17 17 17 18 18 18 18 18 18 18 18 17 17 17 17 17 17 16 16 16 17 17
19 19 19 19 18 18 18 18 18 18 17 17 17 16 16 16 16 17 17 17 17 17 18 18 18 18 18 18 18 18 18 18 18 18 18 17 17 16 17 17 16 16 17
20 19 19 19 18 18 18 18 18 17 17 17 17 17 16 16 16 17 17 17 17 18 18 18 18 18 18 18 18 19 19 19 19 18 18 17 17 16 16 16 16 16 16
19 19 19 19 18 18 18 18 17 16 17 17 17 17 17 17 17 17 17 17 17 18 18 18 18 19 18 18 18 19 19 19 19 18 18 18 17 17 17 17 16 16 16
20 20 20 19 18 18 18 18 17 17 17 17 17 17 17 17 17 17 17 17 18 18 18 18 18 18 18 18 18 18 18 19 19 18 18 18 18 17 17 17 16 16 16
20 20 19 19 18 18 18 17 17 17 17 17 17 17 17 17 17 17 18 18 18 18 18 18 18 18 18 18 19 18 18 18 19 18 18 18 18 17 17 16 16 16 16
20 20 19 19 19 18 18 17 17 18 18 17 17 17 17 17 17 17 18 18 17 18 18 18 18 18 19 18 19 19 19 19 19 19 18 18 18 18 18 17 17 17 17
21 20 20 19 18 18 18 18 18 18 17 17 17 17 17 17 17 17 17 17 17 18 18 18 18 18 19 19 19 19 18 18 19 19 19 18 18 18 18 18 18 17 17
21 21 20 20 19 19 19 18 18 17 17 17 18 17 17 17 17 17 17 17 17 18 18 18 18 18 18 19 19 19 19 19 19 19 19 19 19 18 18 18 18 18 18
21 21 20 20 20 19 19 18 18 18 18 18 17 17 17 17 17 17 17 17 17 18 18 18 18 18 19 18 18 19 19 19 19 19 19 19 19 19 19 18 18 18 18
21 21 21 20 20 20 20 19 19 18 18 17 17 17 17 17 17 17 17 18 18 18 18 18 18 18 18 18 18 19 19 19 19 19 19 20 19 19 19 19 19 19 19
21 21 21 21 21 20 20 19 19 18 18 17 17 17 17 17 17 17 17 18 18 18 18 18 18 18 18 19 18 19 19 19 19 19 19 19 19 19 19 19 19 19 19
Height
1530 1534 1539 1542 1545 1549 1552 1554 1556 1558 1560 1562 1564 1567 1569 1570 1571 1573 1575 1576 1577 1577 1578 1579 1579 1579 1580 1581 1582 1582 1582 1584 1585 1586 1586 1587 1588 1589 1590 1591 1592 1594 1595
1529 1534 1539 1543 1546 1550 1553 1556 1558 1560 1562 1564 1566 1568 1570 1572 1574 1575 1576 1578 1579 1579 1580 1580 1581 1581 1582 1583 1584 1584 1586 1587 1588 1589 1590 1590 1591 1592 1593 1594 1596 1597 1598
1531 1535 1540 1544 1548 1551 1554 1557 1560 1562 1564 1566 1568 1570 1572 1574 1576 1577 1578 1579 1580 1581 1581 1582 1582 1583 1583 1584 1585 1586 1588 1589 1592 1592 1593 1593 1594 1595 1596 1597 1599 1600 1600
1533 1536 1541 1545 1549 1552 1556 1558 1561 1564 1566 1568 1570 1572 1574 1575 1577 1579 1580 1581 1582 1582 1583 1583 1584 1584 1585 1585 1586 1587 1589 1592 1592 1597 1597 1596 1596 1597 1599 1600 1602 1602 1603
1534 1538 1543 1547 1551 1554 1557 1560 1562 1564 1567 1570 1571 1573 1575 1577 1578 1580 1581 1582 1583 1583 1584 1584 1585 1585 1586 1586 1587 1588 1590 1592 1592 1597 1599 1599 1599 1600 1602 1604 1604 1606 1606
1537 1541 1544 1548 1552 1555 1557 1560 1564 1565 1568 1570 1572 1573 1575 1578 1579 1581 1582 1583 1583 1584 1584 1584 1585 1585 1586 1587 1588 1590 1591 1592 1594 1598 1600 1601 1601 1602 1605 1605 1606 1606 1608
1538 1541 1545 1549 1553 1557 1559 1562 1565 1566 1568 1571 1572 1574 1575 1577 1580 1581 1582 1583 1583 1584 1584 1585 1585 1585 1586 1587 1589 1590 1591 1593 1595 1596 1598 1602 1601 1604 1606 1606 1607 1608 1610
1539 1543 1547 1551 1553 1557 1560 1563 1565 1567 1568 1570 1573 1575 1576 1578 1580 1581 1582 1583 1583 1583 1584 1585 1585 1585 1586 1586 1585 1590 1591 1591 1593 1596 1598 1600 1600 1604 1606 1607 1608 1610 1611
1541 1544 1548 1552 1554 1557 1561 1563 1565 1567 1570 1570 1573 1575 1577 1578 1579 1581 1581 1582 1582 1583 1583 1584 1584 1585 1586 1587 1586 1588 1590 1591 1592 1594 1596 1597 1598 1600 1603 1605 1607 1610 1612
1543 1546 1548 1552 1555 1558 1561 1563 1565 1566 1570 1572 1573 1574 1576 1578 1579 1579 1581 1581 1581 1582 1582 1583 1584 1583 1584 1585 1585 1587 1588 1589 1590 1591 1592 1594 1596 1598 1602 1604 1606 1609 1612
1544 1546 1549 1552 1555 1558 1560 1563 1565 1567 1569 1570 1572 1573 1575 1577 1577 1578 1580 1580 1581 1581 1581 1582 1583 1582 1584 1584 1584 1585 1586 1587 1587 1588 1590 1591 1594 1596 1595 1601 1606 1609 1612
1541 1545 1549 1551 1554 1558 1560 1562 1565 1567 1569 1571 1571 1572 1575 1575 1577 1577 1578 1578 1579 1580 1581 1581 1582 1582 1583 1584 1583 1584 1584 1585 1585 1586 1588 1590 1592 1594 1594 1597 1602 1607 1611
1541 1545 1549 1552 1555 1557 1559 1562 1563 1567 1570 1571 1571 1572 1573 1574 1576 1576 1576 1576 1578 1579 1580 1581 1581 1582 1582 1582 1583 1583 1583 1583 1584 1584 1587 1589 1591 1588 1594 1597 1602 1606 1611
1539 1543 1547 1550 1554 1557 1560 1562 1565 1567 1568 1569 1570 1571 1571 1572 1574 1575 1576 1576 1577 1578 1579 1580 1580 1580 1581 1581 1581 1581 1582 1583 1583 1583 1585 1586 1589 1590 1592 1596 1600 1605 1608
1540 1543 1546 1549 1552 1556 1559 1561 1563 1566 1567 1568 1568 1569 1570 1569 1570 1574 1575 1576 1577 1577 1579 1579 1580 1580 1580 1579 1580 1581 1581 1582 1582 1582 1583 1584 1586 1588 1590 1594 1598 1602 1606
1541 1544 1546 1549 1552 1555 1558 1560 1562 1564 1565 1566 1566 1567 1569 1570 1570 1573 1574 1576 1577 1577 1578 1579 1579 1579 1579 1578 1579 1579 1580 1581 1581 1580 1581 1582 1584 1586 1589 1591 1595 1600 1604
1540 1544 1546 1548 1551 1553 1556 1558 1560 1561 1563 1564 1565 1567 1567 1569 1570 1572 1573 1575 1576 1576 1577 1578 1578 1577 1577 1577 1577 1578 1578 1580 1580 1580 1580 1581 1582 1584 1586 1589 1592 1596 1600
1539 1542 1545 1547 1550 1552 1555 1556 1557 1558 1560 1562 1564 1565 1566 1567 1569 1570 1572 1574 1576 1576 1576 1577 1576 1576 1576 1575 1575 1577 1578 1579 1580 1580 1580 1580 1580 1582 1584 1586 1589 1593 1597
1539 1541 1544 1547 1549 1552 1553 1555 1556 1558 1559 1561 1562 1563 1565 1565 1567 1568 1571 1573 1575 1576 1576 1576 1576 1576 1576 1575 1575 1576 1578 1578 1579 1580 1580 1579 1580 1581 1583 1584 1586 1589 1593
1539 1542 1545 1547 1549 1551 1553 1553 1554 1555 1557 1558 1560 1562 1563 1563 1565 1567 1569 1572 1574 1576 1576 1575 1576 1575 1575 1574 1575 1576 1577 1578 1579 1580 1580 1580 1580 1580 1582 1583 1583 1585 1588
1538 1542 1544 1547 1548 1550 1551 1552 1552 1553 1555 1556 1559 1559 1561 1562 1563 1565 1568 1571 1572 1574 1575 1575 1575 1575 1575 1575 1575 1575 1576 1577 1578 1579 1580 1580 1580 1580 1580 1582 1582 1584 1586
1539 1540 1542 1546 1548 1549 1550 1550 1552 1553 1554 1555 1557 1557 1558 1558 1561 1563 1565 1569 1572 1574 1574 1574 1574 1575 1575 1575 1575 1575 1575 1577 1577 1578 1579 1579 1580 1580 1580 1581 1582 1583 1586
1537 1538 1541 1543 1546 1547 1550 1550 1550 1551 1552 1553 1554 1555 1556 1557 1559 1561 1564 1567 1570 1572 1573 1574 1574 1574 1574 1574 1574 1575 1575 1575 1575 1575 1576 1577 1578 1579 1580 1581 1582 1583 1585
1537 1539 1542 1543 1545 1547 1548 1548 1549 1549 1550 1552 1553 1554 1555 1556 1557 1558 1562 1565 1569 1571 1572 1573 1573 1573 1574 1573 1573 1573 1573 1574 1574 1574 1574 1575 1576 1578 1579 1580 1581 1582 1584
1537 1539 1541 1542 1543 1544 1545 1546 1546 1547 1548 1550 1551 1551 1552 1553 1555 1557 1559 1563 1566 1569 1570 1571 1572 1572 1572 1572 1572 1572 1571 1572 1572 1572 1572 1573 1574 1575 1577 1578 1579 1581 1583
1535 1537 1538 1540 1540 1542 1543 1544 1544 1545 1546 1548 1549 1550 1551 1551 1552 1555 1557 1560 1563 1566 1567 1569 1570 1571 1572 1572 1572 1571 1571 1571 1571 1570 1570 1570 1570 1571 1573 1574 1576 1578 1580
Wind_Speed
25 28 27 26 25 23 25 27 24 25 24 25 24 23 22 21 21 18 15 13 12 12 12 11 10 9 8 9 9 8 10 11 13 13 14 16 15 14 14 14 16 16 16
29 30 29 27 26 25 25 24 23 24 23 22 21 21 19 18 18 16 13 10 9 9 9 8 8 8 7 7 8 7 9 11 12 12 13 14 14 14 13 13 13 15 16
28 30 30 28 26 25 24 23 22 21 21 21 21 20 18 17 15 13 11 9 7 7 8 7 6 7 7 6 7 8 9 10 13 10 12 14 13 14 14 14 12 14 16
28 30 30 28 27 25 23 21 21 21 21 21 21 20 18 16 14 12 10 7 6 6 6 6 5 5 6 5 6 7 9 13 11 6 10 12 14 13 12 12 12 13 14
28 29 30 27 25 24 22 20 21 22 22 21 20 18 17 15 14 12 9 7 6 6 6 5 4 3 4 5 6 8 12 13 12 10 7 11 17 13 8 6 11 11 14
27 27 29 27 24 22 21 20 20 21 21 20 18 18 16 14 12 10 8 7 6 5 6 5 4 4 4 6 7 9 12 13 14 14 11 10 11 15 11 2 5 13 12
28 28 29 28 24 22 20 19 18 19 19 20 19 16 15 14 12 10 8 8 7 6 6 6 5 4 4 5 6 8 12 12 16 17 11 11 14 16 14 14 5 10 11
28 28 28 27 25 23 21 19 18 17 18 18 18 16 13 12 8 9 8 7 6 7 6 6 6 6 5 5 8 8 11 12 14 13 12 13 18 17 16 20 13 12 12
28 28 27 26 25 23 20 19 18 18 16 16 16 15 14 12 13 10 8 7 6 6 6 6 7 6 5 7 9 11 12 13 11 9 14 12 15 23 21 21 16 13 14
26 26 26 26 25 23 20 19 18 17 17 16 18 16 15 15 12 12 9 8 8 6 6 6 6 5 6 7 6 9 12 16 14 13 12 15 16 18 21 26 18 15 14
23 23 24 24 23 23 20 19 17 16 17 17 20 16 15 13 11 11 11 11 10 8 7 6 6 7 6 6 5 6 9 12 12 11 11 11 18 17 18 22 25 19 17
26 25 23 23 22 22 20 20 17 17 15 15 13 13 13 12 10 10 11 11 10 9 8 7 8 7 6 5 4 5 7 8 9 8 7 11 16 13 14 19 34 23 21
25 25 25 23 21 21 19 19 16 13 11 12 11 13 14 12 11 8 8 10 12 9 9 9 8 5 5 4 5 8 7 8 7 9 8 8 12 17 13 22 26 24 23
25 23 25 23 22 20 17 16 11 10 11 10 11 14 15 15 11 7 5 4 8 9 8 8 7 5 6 5 4 4 5 6 8 10 8 9 8 16 16 24 26 24 24
23 21 22 23 22 20 18 16 15 10 9 8 10 12 15 11 12 8 8 6 6 7 7 7 6 4 3 1 2 2 5 6 6 7 10 11 11 12 15 19 26 27 25
22 20 19 19 19 20 19 17 16 11 8 7 7 9 11 11 9 9 10 8 6 7 6 7 4 2 3 4 5 4 6 6 5 5 8 10 11 13 15 18 23 30 28
18 19 18 18 18 19 18 17 16 12 10 8 7 9 12 11 11 12 13 7 6 5 6 5 3 1 2 4 7 2 7 6 5 5 5 7 11 12 14 18 20 26 31
18 19 20 19 18 16 16 17 19 12 10 9 10 10 10 11 11 12 13 9 5 8 6 4 2 3 5 5 4 7 7 8 5 4 4 5 8 10 12 14 18 24 29
13 16 18 19 18 14 12 13 12 11 11 9 12 13 12 12 15 16 15 11 6 8 5 2 4 3 4 3 1 6 7 6 6 5 0 4 6 9 12 11 14 21 28
15 15 15 17 16 15 12 12 14 13 13 12 11 13 14 14 15 17 16 13 9 8 5 3 5 2 4 3 2 6 4 5 7 6 3 5 5 7 9 10 11 15 26
16 16 15 16 15 16 15 14 16 15 13 13 12 11 14 16 16 17 20 16 11 8 5 5 6 6 3 1 3 6 6 6 8 5 4 2 3 4 7 6 6 11 17
12 12 14 13 14 14 13 12 13 8 10 13 11 13 14 15 17 17 19 17 14 9 7 7 4 5 5 2 2 5 5 8 8 6 5 5 4 3 5 6 6 7 11
15 15 12 13 12 13 11 12 14 15 14 13 14 14 15 16 15 16 19 19 15 12 10 8 6 4 3 2 3 4 3 3 6 10 8 7 8 7 6 6 5 6 9
13 14 14 12 13 14 15 16 17 15 14 13 13 12 12 15 15 16 18 20 16 14 11 9 6 5 4 2 2 2 2 3 1 1 9 11 12 10 10 10 9 6 9
14 14 14 14 14 13 13 15 17 18 15 14 12 11 11 14 14 17 19 21 19 16 12 11 8 7 6 4 4 0 1 4 4 4 4 6 15 13 12 12 11 11 9
15 16 16 16 16 16 15 17 18 17 16 18 15 13 13 13 16 17 20 22 20 17 14 11 10 8 7 6 6 5 4 2 4 5 5 7 10 16 16 15 15 16 16
Wind_Direction
164 160 157 150 144 145 146 149 147 148 147 144 140 137 143 145 144 139 134 126 122 119 115 117 116 115 114 116 121 114 114 119 117 116 119 123 117 124 120 129 135 129 126
160 164 161 157 151 149 149 152 154 153 153 155 154 150 146 148 149 145 141 137 129 122 115 120 122 124 124 126 130 131 126 132 127 123 122 122 121 122 128 129 126 131 131
162 164 164 164 158 155 152 153 157 159 159 158 157 156 154 153 154 150 148 144 141 130 120 116 113 113 125 136 141 147 144 141 141 134 137 131 129 127 123 120 123 127 127
164 167 168 169 167 163 161 161 162 162 162 161 160 161 162 159 159 159 154 157 156 151 145 148 132 121 127 137 155 157 142 124 117 135 144 129 123 121 117 119 126 131 132
167 169 172 172 174 171 169 171 173 172 171 170 170 169 172 174 173 170 169 179 178 177 179 186 182 172 156 164 168 160 145 149 163 156 154 144 124 122 91 122 134 134 133
168 167 172 174 177 177 174 173 176 179 180 179 182 179 180 183 183 185 188 196 196 202 212 208 206 210 205 191 178 169 164 166 162 166 181 156 151 162 170 236 164 146 145
167 170 172 174 178 180 176 173 173 176 176 180 187 185 183 184 190 200 205 216 228 228 234 237 235 225 209 200 185 189 186 170 170 171 185 167 153 163 164 212 175 170 155
170 173 177 180 182 184 186 184 183 177 178 176 181 185 176 200 195 215 218 226 241 248 242 241 235 222 216 192 193 196 203 188 184 191 202 216 205 185 183 195 216 196 169
175 175 178 181 185 185 183 184 186 181 183 179 190 175 197 204 204 222 219 233 245 259 243 232 231 223 212 215 209 195 206 195 203 243 212 208 208 201 184 190 200 191 188
180 180 179 180 185 182 184 186 188 189 185 185 190 190 201 209 221 226 234 246 254 255 240 228 225 216 219 230 208 199 214 223 236 259 243 216 214 209 198 191 195 187 185
185 189 184 184 186 181 184 186 188 195 194 191 197 201 213 213 229 234 244 255 258 243 236 234 228 229 225 231 216 216 219 224 231 236 231 224 209 214 210 201 206 189 184
188 190 195 189 189 187 186 190 195 198 200 211 221 220 219 213 241 249 259 251 239 243 232 233 247 243 250 241 239 250 242 231 221 231 225 213 203 219 229 209 199 192 188
187 193 197 197 196 196 194 200 202 199 208 222 226 222 220 229 245 257 268 241 231 240 245 246 237 251 265 244 242 248 239 224 224 229 206 198 213 217 202 169 185 193 194
189 191 194 199 202 202 203 211 204 207 221 237 234 231 229 226 239 244 244 214 220 242 248 246 242 245 263 253 261 236 216 203 217 221 213 204 210 203 200 191 196 198 198
193 193 195 199 203 206 207 213 209 222 235 236 236 228 227 224 209 230 240 233 223 236 250 244 235 248 254 263 303 262 230 217 211 218 224 217 206 202 201 198 196 197 195
203 202 200 197 208 209 215 222 221 239 233 230 223 215 208 208 221 221 237 224 234 259 235 206 195 247 276 263 276 244 228 217 200 212 214 224 224 213 206 207 207 206 204
214 211 206 200 205 213 221 227 229 234 228 229 204 213 217 214 216 222 226 214 237 224 216 224 215 293 325 295 260 219 190 175 174 189 221 244 232 214 208 209 210 206 207
218 215 214 211 208 214 223 227 236 221 229 230 213 213 217 215 214 216 219 219 230 228 214 217 288 263 295 287 290 195 186 175 177 198 243 250 211 210 203 205 209 210 209
215 213 217 217 217 216 223 227 238 224 235 236 224 219 221 219 218 220 216 217 232 233 214 144 14 276 284 312 241 163 175 173 177 170 77 179 181 192 196 198 215 214 210
217 217 218 222 223 221 226 227 221 226 233 233 230 221 224 229 226 218 220 219 226 237 233 260 311 288 334 318 203 201 179 194 173 162 130 109 153 173 187 201 203 205 208
217 224 221 224 221 223 228 226 223 232 240 244 240 230 230 235 233 225 219 224 232 249 262 269 297 287 283 346 216 225 219 185 178 179 189 173 127 156 176 189 179 188 198
207 219 225 225 225 228 229 233 236 246 256 254 257 239 232 232 237 236 223 222 230 247 262 266 295 287 271 280 191 186 198 199 199 198 206 200 187 182 170 183 188 184 195
208 212 218 225 223 227 238 243 249 250 258 261 255 246 233 236 246 234 224 219 227 242 252 258 276 301 299 261 264 212 179 208 209 221 217 214 200 195 196 191 192 194 204
220 227 231 230 234 237 240 247 255 263 265 276 282 266 243 243 241 223 223 221 227 235 247 245 267 283 306 31 306 193 245 218 227 265 227 226 220 213 207 210 203 203 215
238 240 242 243 245 244 252 256 258 265 271 275 276 259 248 237 233 229 221 219 226 233 244 241 262 277 292 293 326 12 258 269 284 286 254 244 233 225 220 217 212 213 226
250 253 252 252 253 253 258 261 264 267 272 272 267 255 249 244 236 229 224 217 222 231 238 242 246 268 274 298 298 315 328 7 328 317 278 276 266 238 235 229 222 215 220